Location: M?digepalle
(16.1753°N, 80.3496°E)
Time: 08:52:36
(UTC+00:00)

CZ-4B R/B - Pass Details

Date: 29 October 2020
Orbit: 388 x 462 km, 97.6° (Epoch: 27 November)

Event Time Altitude Azimuth Distance (km) Brightness Sun altitude
Rises 12:35:19 0° 348° (NNW) 2,312 5.0 -6.8°
Reaches altitude 10° 12:37:46 10° 327° (NNW) 1,440 4.2 -7.4°
Maximum altitude 12:39:51 17° 284° (WNW) 1,089 4.4 -7.9°
Drops below altitude 10° 12:41:53 10° 242° (WSW) 1,423 5.4 -8.4°
Sets 12:44:18 0° 220° (SW) 2,270 5.9 -8.9°
